Weather History for KTVL - November, 2012

Change the Weather History Date:

Friday, November 23, 2012

  Actual Average Record
Temperature  
Mean Temperature 41 °F 34 °F  
Max Temperature 58 °F 48 °F 63 °F (1995)
Min Temperature 24 °F 20 °F 0 °F (1994)
Degree Days  
Heating Degree Days 24 31  
Month to date heating degree days 607 635  
Since 1 July heating degree days 1585 1867  
Cooling Degree Days 0 0  
Month to date cooling degree days 0 0  
Year to date cooling degree days 30 31  
Moisture  
Dew Point 28 °F    
Average Humidity 67    
Maximum Humidity 88    
Minimum Humidity 46    
Precipitation  
Precipitation 0.00 in - 2.73 in (1988)
Month to date precipitation 1.60  
Year to date precipitation 13.48  
Sea Level Pressure  
Sea Level Pressure 30.37 in    
Wind  
Wind Speed 2 mph (South)    
Max Wind Speed 8 mph    
Max Gust Speed 12 mph    
Visibility 10 miles    
Events      
T = Trace of Precipitation, MM = Missing Value Source: NWS Daily Summary

Daily Weather History Graph

Daily Weather History Graph

Search for Another Location

Airport or City:

Trip Planner

Search our weather history database for the weather conditions in past years. The results will help you decide how hot, cold, wet, or windy it might be!

Date:

Astronomy

Nov. 23, 2012 Rise Set
Actual Time 6:52 AM PST 4:40 PM PST
Civil Twilight 6:22 AM PST 5:09 PM PST
Nautical Twilight 5:50 AM PST 5:42 PM PST
Astronomical Twilight 5:18 AM PST 6:14 PM PST
Moon 1:56 PM PST (11/23) 2:17 AM PST (11/23)
Length of Visible Light 10h 46m
Length of Day
9h 48m
Waxing Gibbous, 80% of the Moon is Illuminated
Nov 23
Waxing Gibbous
Nov 28
Full
Dec 6
Last Quarter
Dec 13
New
Dec 19
First Quarter

Hourly Weather History & Observations

Time (PST) Temp. Windchill Dew Point Humidity Pressure Visibility Wind Dir Wind Speed Gust Speed Precip Events Conditions
12:53 AM 28.0 °F 24.2 °F 24.1 °F 85% 30.35 in 10.0 mi South 3.5 mph - N/A   Clear
1:53 AM 27.0 °F 23.0 °F 23.0 °F 85% 30.36 in 10.0 mi South 3.5 mph - N/A   Clear
2:53 AM 27.0 °F 23.0 °F 21.9 °F 81% 30.36 in 9.0 mi South 3.5 mph - N/A   Clear
4:53 AM 26.1 °F - 21.0 °F 81% 30.40 in 10.0 mi Calm Calm - N/A   Clear
5:53 AM 26.1 °F 21.9 °F 21.0 °F 81% 30.43 in 10.0 mi South 3.5 mph - N/A   Clear
6:53 AM 25.0 °F - 19.9 °F 81% 30.44 in 10.0 mi Calm Calm - N/A   Clear
7:53 AM 25.0 °F 20.7 °F 21.0 °F 85% 30.47 in 10.0 mi South 3.5 mph - N/A   Clear
8:53 AM 33.1 °F 30.0 °F 26.1 °F 75% 30.45 in 10.0 mi South 3.5 mph - N/A   Clear
9:53 AM 44.1 °F - 30.9 °F 60% 30.41 in 10.0 mi Calm Calm - N/A   Clear
10:53 AM 50.0 °F - 34.0 °F 54% 30.38 in 10.0 mi NE 3.5 mph - N/A   Clear
11:53 AM 53.1 °F - 33.1 °F 47% 30.34 in 10.0 mi Calm Calm - N/A   Clear
12:53 PM 55.9 °F - 35.1 °F 45% 30.32 in 10.0 mi Variable 3.5 mph - N/A   Clear
1:53 PM 54.0 °F - 35.1 °F 49% 30.31 in 10.0 mi Calm Calm - N/A   Clear
2:53 PM 55.0 °F - 35.1 °F 47% 30.30 in 10.0 mi Calm Calm - N/A   Clear
3:53 PM 48.9 °F - 33.1 °F 54% 30.33 in 10.0 mi North 3.5 mph - N/A   Clear
4:53 PM 43.0 °F - 35.1 °F 74% 30.35 in 10.0 mi Calm Calm - N/A   Clear
5:53 PM 39.0 °F - 32.0 °F 76% 30.37 in 10.0 mi Calm Calm - N/A   Clear
6:53 PM 36.0 °F - 30.9 °F 82% 30.39 in 10.0 mi Calm Calm - N/A   Clear
7:53 PM 34.0 °F 31.0 °F 28.9 °F 82% 30.40 in 10.0 mi South 3.5 mph - N/A   Clear
8:53 PM 32.0 °F - 28.0 °F 85% 30.38 in 10.0 mi Calm Calm - N/A   Clear
9:53 PM 30.9 °F - 26.1 °F 82% 30.35 in 10.0 mi Calm Calm - N/A   Clear
10:53 PM 30.0 °F - 26.1 °F 85% 30.34 in 10.0 mi Calm Calm - N/A   Clear
11:53 PM 28.9 °F - 25.0 °F 85% 30.33 in 10.0 mi Calm Calm - N/A   Clear